星链-32882 (STARLINK-32882)

导读

STARLINK-32882是美国SpaceX星链互联网星座的卫星,于2025年2月11日发射。星链项目旨在构建全球卫星互联网星座,为地面偏远区域、海洋航空等场景提供低成本高速宽带服务。该星继承了星链批次化生产发射的特点,依托可回收火箭实现规模化部署,进一步拓展了星链星座的全球覆盖能力。

基本信息
目录编号:
62963
目录名称:
STARLINK-32882
国际标识:
2025-029R
轨道中心:
EARTH
卫星名称:
星链-32882
卫星全名:
星链-32882 (STARLINK-32882)
卫星状态:
在轨 (已飞行571 天)
发射日期:
2025-02-11 UTC
国别 :
美国 (US)
星等 :
--
轨道信息
数据来源 国际轨道数据
星历时间: 2026-09-04T23:00:26+0800
16小时前
查看轨道信息
半长轴: 6840.856km
偏心率: 0.000127
轨道倾角: 53.158°
近地点辐角 94.542°
升交点赤经 115.631°
平近点角 265.573°
近地点: 461.85km
远地点: 463.588km
周期: 93.848分钟
每日圈数: 15.343947
详细信息
固有亮度:
5
最大亮度:
2.5
卫星平台:
Starlink V1.0
覆盖范围:
全球
运营商:
太空探索技术公司
运营商所在国:
美国
制造商(研发单位):
太空探索技术公司
制造商所在国:
美国
使用方式:
暂无
卫星简介
Starlink 计划是 SpaceX 推出的全球卫星互联网项目,通过发射低轨道卫星,为全球尤其是偏远地区提供高速、低延迟的互联网服务。自 2019 年起,Starlink 已部署数千颗卫星,旨在缩小全球数字鸿沟,推动互联网普及。该项目还为军事、航空等行业提供通信支持,带来广泛经济效益。
2D轨道图
3D轨道图
轨道高度分析图
轨道倾角分析图
轨道综合分析图
查看轨道综合分析图
交会数据列表
事件ID 空间交会对象 最接近时刻(TCA) 交会距离 交会风险概率(CRP) 交会风险指数(CRI) 操作
CDM_260907-151206-202206-296321
2026-09-07T
15:12:16+0000
0.611 km
远距离
7.845367E-5 中风险 0.73
CDM_260830-230506-296306-809821
2026-08-30T
23:05:40+0000
0.673 km
远距离
2.502758E-5 中风险 0.63
CDM_260907-205206-296306-920521
2026-09-07T
20:52:48+0000
1.870 km
极远距离
2.159124E-6 低风险 0.42
CDM_260906-154705-846906-296321
2026-09-06T
15:47:08+0000
2.545 km
极远距离
1.60567E-6 低风险 0.39
CDM_260907-133806-202206-296321
2026-09-07T
13:38:29+0000
2.298 km
极远距离
1.340466E-6 低风险 0.38
CDM_260906-140505-302406-296321
2026-09-06T
14:05:42+0000
2.833 km
极远距离
1.188725E-6 低风险 0.37
CDM_260830-221806-296306-809821
2026-08-30T
22:18:48+0000
2.275 km
极远距离
6.529129E-7 极低风险 0.31
CDM_260905-061606-296306-619921
2026-09-05T
06:16:20+0000
2.917 km
极远距离
4.740123E-7 极低风险 0.29